Time,TemperatureF,DewpointF,PressureIn,WindDirection,WindDirectionDegrees,WindSpeedMPH,WindSpeedGustMPH,Humidity,HourlyPrecipIn,Conditions,Clouds,dailyrainin,SolarRadiationWatts/m^2,SoftwareType,DateUTC
2013-08-09 00:01:00,81.0,36.0,-100.00,WNW,284,11.0,18.0,19,-99.99,,,-99.99,0.000000,,2013-08-09 06:01:00,
2013-08-09 00:11:00,81.0,36.0,-100.00,WNW,285,11.0,16.0,19,-99.99,,,-99.99,0.000000,,2013-08-09 06:11:00,
2013-08-09 00:21:00,81.0,35.0,-100.00,WNW,283,10.0,17.0,19,-99.99,,,-99.99,0.000000,,2013-08-09 06:21:00,
2013-08-09 00:32:00,81.0,35.0,-100.00,WNW,283,10.0,17.0,19,-99.99,,,-99.99,0.000000,,2013-08-09 06:32:00,
2013-08-09 00:43:00,81.0,35.0,-100.00,West,278,10.0,15.0,19,-99.99,,,-99.99,0.000000,,2013-08-09 06:43:00,
2013-08-09 00:52:00,80.0,35.0,-100.00,West,280,10.0,14.0,19,-99.99,,,-99.99,0.000000,,2013-08-09 06:52:00,
2013-08-09 01:01:00,80.0,35.0,-100.00,West,280,10.0,14.0,19,-99.99,,,-99.99,0.000000,,2013-08-09 07:01:00,
2013-08-09 01:12:00,80.0,35.0,-100.00,WNW,288,10.0,14.0,19,-99.99,,,-99.99,0.000000,,2013-08-09 07:12:00,
2013-08-09 01:22:00,80.0,34.0,-100.00,WNW,285,10.0,15.0,19,-99.99,,,-99.99,0.000000,,2013-08-09 07:22:00,
2013-08-09 01:33:00,80.0,34.0,-100.00,WNW,285,10.0,15.0,19,-99.99,,,-99.99,0.000000,,2013-08-09 07:33:00,
2013-08-09 01:43:00,80.0,33.0,-100.00,West,278,11.0,17.0,18,-99.99,,,-99.99,0.000000,,2013-08-09 07:43:00,
2013-08-09 02:02:00,80.0,33.0,-100.00,West,277,11.0,16.0,18,-99.99,,,-99.99,0.000000,,2013-08-09 08:02:00,
2013-08-09 02:12:00,80.0,32.0,-100.00,West,276,12.0,17.0,17,-99.99,,,-99.99,0.000000,,2013-08-09 08:12:00,
2013-08-09 02:22:00,81.0,32.0,-100.00,West,280,12.0,19.0,17,-99.99,,,-99.99,0.000000,,2013-08-09 08:22:00,
2013-08-09 02:32:00,81.0,32.0,-100.00,West,280,12.0,19.0,17,-99.99,,,-99.99,0.000000,,2013-08-09 08:32:00,
2013-08-09 02:43:00,81.0,32.0,-100.00,WNW,287,12.0,19.0,17,-99.99,,,-99.99,0.000000,,2013-08-09 08:43:00,
2013-08-09 02:53:00,80.0,33.0,-100.00,WNW,290,14.0,19.0,18,-99.99,,,-99.99,0.000000,,2013-08-09 08:53:00,
2013-08-09 03:02:00,80.0,33.0,-100.00,WNW,290,14.0,19.0,18,-99.99,,,-99.99,0.000000,,2013-08-09 09:02:00,
2013-08-09 03:12:00,80.0,33.0,-100.00,WNW,287,14.0,21.0,18,-99.99,,,-99.99,0.000000,,2013-08-09 09:12:00,
2013-08-09 03:32:00,80.0,33.0,-100.00,West,281,13.0,20.0,17,-99.99,,,-99.99,0.000000,,2013-08-09 09:32:00,
2013-08-09 03:43:00,79.0,33.0,-100.00,WNW,284,12.0,19.0,18,-99.99,,,-99.99,0.000000,,2013-08-09 09:43:00,
2013-08-09 03:52:00,79.0,33.0,-100.00,WNW,286,12.0,19.0,19,-99.99,,,-99.99,0.000000,,2013-08-09 09:52:00,
2013-08-09 04:01:00,79.0,33.0,-100.00,WNW,286,12.0,19.0,19,-99.99,,,-99.99,0.000000,,2013-08-09 10:01:00,
2013-08-09 04:12:00,79.0,33.0,-100.00,WNW,284,13.0,18.0,19,-99.99,,,-99.99,0.000000,,2013-08-09 10:12:00,
2013-08-09 04:22:00,79.0,33.0,-100.00,WNW,282,13.0,20.0,19,-99.99,,,-99.99,0.000000,,2013-08-09 10:22:00,
2013-08-09 04:32:00,79.0,33.0,-100.00,WNW,282,13.0,20.0,19,-99.99,,,-99.99,0.000000,,2013-08-09 10:32:00,
2013-08-09 04:43:00,79.0,33.0,-100.00,WNW,283,13.0,19.0,19,-99.99,,,-99.99,0.000000,,2013-08-09 10:43:00,
2013-08-09 04:53:00,79.0,33.0,-100.00,West,278,8.0,18.0,19,-99.99,,,-99.99,0.000000,,2013-08-09 10:53:00,
2013-08-09 05:01:00,79.0,33.0,-100.00,West,278,8.0,18.0,19,-99.99,,,-99.99,0.000000,,2013-08-09 11:01:00,
2013-08-09 05:11:00,77.0,34.0,-100.00,NNW,347,5.0,13.0,20,-99.99,,,-99.99,0.000000,,2013-08-09 11:11:00,
2013-08-09 05:22:00,77.0,34.0,-100.00,NW,324,3.0,6.0,21,-99.99,,,-99.99,0.000000,,2013-08-09 11:22:00,
2013-08-09 05:33:00,77.0,34.0,-100.00,NW,324,3.0,6.0,21,-99.99,,,-99.99,0.000000,,2013-08-09 11:33:00,
2013-08-09 05:42:00,76.0,35.0,-100.00,WNW,292,4.0,9.0,23,-99.99,,,-99.99,0.000000,,2013-08-09 11:42:00,
2013-08-09 05:53:00,73.0,36.0,-100.00,NW,313,7.0,11.0,26,-99.99,,,-99.99,0.000000,,2013-08-09 11:53:00,
2013-08-09 06:02:00,73.0,36.0,-100.00,NW,313,7.0,11.0,26,-99.99,,,-99.99,0.000000,,2013-08-09 12:02:00,
2013-08-09 06:12:00,73.0,36.0,-100.00,NW,318,4.0,7.0,25,-99.99,,,-99.99,0.000000,,2013-08-09 12:12:00,
2013-08-09 06:32:00,72.0,36.0,-100.00,West,264,2.0,4.0,26,-99.99,,,-99.99,0.000000,,2013-08-09 12:32:00,
2013-08-09 06:43:00,73.0,36.0,-100.00,West,271,2.0,7.0,26,-99.99,,,-99.99,0.000000,,2013-08-09 12:43:00,
2013-08-09 06:52:00,72.0,37.0,-100.00,NW,308,5.0,7.0,27,-99.99,,,-99.99,2.090000,,2013-08-09 12:52:00,
2013-08-09 07:01:00,72.0,37.0,-100.00,NW,308,5.0,7.0,27,-99.99,,,-99.99,2.090000,,2013-08-09 13:01:00,
2013-08-09 07:12:00,70.0,38.0,-100.00,NW,313,7.0,9.0,30,-99.99,,,-99.99,6.970000,,2013-08-09 13:12:00,
2013-08-09 07:23:00,70.0,38.0,-100.00,NW,312,7.0,8.0,31,-99.99,,,-99.99,13.950000,,2013-08-09 13:23:00,
2013-08-09 07:32:00,70.0,38.0,-100.00,NW,312,7.0,8.0,31,-99.99,,,-99.99,13.950000,,2013-08-09 13:32:00,
2013-08-09 07:43:00,71.0,39.0,-100.00,NW,308,8.0,11.0,30,-99.99,,,-99.99,48.810001,,2013-08-09 13:43:00,
2013-08-09 07:52:00,74.0,38.0,-100.00,NW,304,8.0,11.0,27,-99.99,,,-99.99,81.589996,,2013-08-09 13:52:00,
2013-08-09 08:02:00,74.0,38.0,-100.00,NW,304,8.0,11.0,27,-99.99,,,-99.99,81.589996,,2013-08-09 14:02:00,
2013-08-09 08:11:00,75.0,41.0,-100.00,SSW,198,4.0,7.0,29,-99.99,,,-99.99,152.720001,,2013-08-09 14:11:00,
2013-08-09 08:22:00,74.0,42.0,-100.00,ESE,109,2.0,5.0,31,-99.99,,,-99.99,209.199997,,2013-08-09 14:22:00,
2013-08-09 08:33:00,74.0,42.0,-100.00,ESE,109,2.0,5.0,31,-99.99,,,-99.99,209.199997,,2013-08-09 14:33:00,
2013-08-09 08:43:00,76.0,42.0,-100.00,NW,309,2.0,4.0,29,-99.99,,,-99.99,255.919998,,2013-08-09 14:43:00,
2013-08-09 08:53:00,77.0,42.0,-100.00,SSW,204,2.0,7.0,28,-99.99,,,-99.99,304.730011,,2013-08-09 14:53:00,
2013-08-09 09:01:00,77.0,42.0,-100.00,SSW,204,2.0,7.0,28,-99.99,,,-99.99,304.730011,,2013-08-09 15:01:00,
2013-08-09 09:11:00,76.0,44.0,-100.00,SSE,156,4.0,6.0,31,-99.99,,,-99.99,351.459991,,2013-08-09 15:11:00,
2013-08-09 09:22:00,78.0,45.0,-100.00,SSE,153,4.0,8.0,30,-99.99,,,-99.99,397.480011,,2013-08-09 15:22:00,
2013-08-09 09:33:00,78.0,45.0,-100.00,SSE,153,4.0,8.0,30,-99.99,,,-99.99,397.480011,,2013-08-09 15:33:00,
2013-08-09 09:44:00,79.0,43.0,-100.00,South,173,7.0,11.0,27,-99.99,,,-99.99,444.899994,,2013-08-09 15:44:00,
2013-08-09 09:53:00,79.0,42.0,-100.00,South,175,6.0,11.0,27,-99.99,,,-99.99,490.230011,,2013-08-09 15:53:00,
2013-08-09 10:01:00,79.0,42.0,-100.00,South,175,6.0,11.0,27,-99.99,,,-99.99,490.230011,,2013-08-09 16:01:00,
2013-08-09 10:11:00,80.0,43.0,-100.00,South,184,5.0,9.0,26,-99.99,,,-99.99,530.669983,,2013-08-09 16:11:00,
2013-08-09 10:22:00,80.0,44.0,-100.00,South,171,6.0,11.0,28,-99.99,,,-99.99,573.210022,,2013-08-09 16:22:00,
2013-08-09 10:32:00,80.0,44.0,-100.00,South,171,6.0,11.0,28,-99.99,,,-99.99,573.210022,,2013-08-09 16:32:00,
2013-08-09 10:43:00,80.0,45.0,-100.00,South,178,6.0,11.0,28,-99.99,,,-99.99,613.650024,,2013-08-09 16:43:00,
2013-08-09 11:02:00,80.0,45.0,-100.00,South,171,6.0,11.0,29,-99.99,,,-99.99,654.099976,,2013-08-09 17:02:00,
2013-08-09 11:11:00,81.0,46.0,-100.00,South,176,6.0,12.0,29,-99.99,,,-99.99,692.450012,,2013-08-09 17:11:00,
2013-08-09 11:22:00,81.0,46.0,-100.00,South,183,6.0,11.0,29,-99.99,,,-99.99,726.619995,,2013-08-09 17:22:00,
2013-08-09 11:33:00,81.0,46.0,-100.00,South,183,6.0,11.0,29,-99.99,,,-99.99,726.619995,,2013-08-09 17:33:00,
2013-08-09 11:43:00,82.0,46.0,-100.00,SSE,160,5.0,10.0,28,-99.99,,,-99.99,761.489990,,2013-08-09 17:43:00,
2013-08-09 11:52:00,82.0,46.0,-100.00,SSE,165,7.0,13.0,28,-99.99,,,-99.99,791.469971,,2013-08-09 17:52:00,
2013-08-09 12:01:00,82.0,46.0,-100.00,SSE,165,7.0,13.0,28,-99.99,,,-99.99,791.469971,,2013-08-09 18:01:00,
2013-08-09 12:11:00,83.0,46.0,-100.00,SSE,166,5.0,11.0,27,-99.99,,,-99.99,815.880005,,2013-08-09 18:11:00,
2013-08-09 12:22:00,83.0,45.0,-100.00,South,176,5.0,10.0,26,-99.99,,,-99.99,810.299988,,2013-08-09 18:22:00,
2013-08-09 12:32:00,83.0,45.0,-100.00,South,176,5.0,10.0,26,-99.99,,,-99.99,810.299988,,2013-08-09 18:32:00,
2013-08-09 12:43:00,84.0,45.0,-100.00,SSE,155,6.0,13.0,25,-99.99,,,-99.99,858.419983,,2013-08-09 18:43:00,
2013-08-09 12:53:00,85.0,45.0,-100.00,South,170,6.0,14.0,24,-99.99,,,-99.99,866.090027,,2013-08-09 18:53:00,
2013-08-09 13:02:00,85.0,45.0,-100.00,South,170,6.0,14.0,24,-99.99,,,-99.99,866.090027,,2013-08-09 19:02:00,
2013-08-09 13:11:00,85.0,44.0,-100.00,SSE,153,6.0,10.0,23,-99.99,,,-99.99,887.010010,,2013-08-09 19:11:00,
2013-08-09 13:22:00,86.0,43.0,-100.00,SSE,165,6.0,13.0,21,-99.99,,,-99.99,847.960022,,2013-08-09 19:22:00,
2013-08-09 13:32:00,86.0,43.0,-100.00,SSE,165,6.0,13.0,21,-99.99,,,-99.99,847.960022,,2013-08-09 19:32:00,
2013-08-09 13:43:00,86.0,43.0,-100.00,SSE,157,7.0,16.0,22,-99.99,,,-99.99,921.179993,,2013-08-09 19:43:00,
2013-08-09 13:52:00,87.0,41.0,-100.00,SSE,166,8.0,17.0,19,-99.99,,,-99.99,963.020020,,2013-08-09 19:52:00,
2013-08-09 14:02:00,87.0,41.0,-100.00,SSE,166,8.0,17.0,19,-99.99,,,-99.99,963.020020,,2013-08-09 20:02:00,
2013-08-09 14:11:00,87.0,40.0,-100.00,SSE,167,7.0,17.0,19,-99.99,,,-99.99,718.950012,,2013-08-09 20:11:00,
2013-08-09 14:22:00,88.0,40.0,-100.00,SSE,167,7.0,17.0,18,-99.99,,,-99.99,958.830017,,2013-08-09 20:22:00,
2013-08-09 14:32:00,88.0,40.0,-100.00,SSE,167,7.0,17.0,18,-99.99,,,-99.99,958.830017,,2013-08-09 20:32:00,
2013-08-09 14:43:00,89.0,39.0,-100.00,South,170,9.0,16.0,17,-99.99,,,-99.99,914.200012,,2013-08-09 20:43:00,
2013-08-09 14:52:00,88.0,38.0,-100.00,SSE,153,8.0,18.0,17,-99.99,,,-99.99,883.520020,,2013-08-09 20:52:00,
2013-08-09 15:01:00,88.0,38.0,-100.00,SSE,153,8.0,18.0,17,-99.99,,,-99.99,883.520020,,2013-08-09 21:01:00,
2013-08-09 15:12:00,89.0,39.0,-100.00,SSE,160,9.0,20.0,17,-99.99,,,-99.99,889.099976,,2013-08-09 21:12:00,
2013-08-09 15:22:00,89.0,37.0,-100.00,South,171,10.0,19.0,15,-99.99,,,-99.99,833.309998,,2013-08-09 21:22:00,
2013-08-09 15:33:00,89.0,37.0,-100.00,South,171,10.0,19.0,15,-99.99,,,-99.99,833.309998,,2013-08-09 21:33:00,
2013-08-09 15:43:00,89.0,37.0,-100.00,South,185,7.0,18.0,16,-99.99,,,-99.99,666.650024,,2013-08-09 21:43:00,
2013-08-09 15:52:00,90.0,36.0,-100.00,SSE,161,9.0,16.0,15,-99.99,,,-99.99,582.969971,,2013-08-09 21:52:00,
2013-08-09 16:01:00,90.0,36.0,-100.00,SSE,161,9.0,16.0,15,-99.99,,,-99.99,582.969971,,2013-08-09 22:01:00,
2013-08-09 16:11:00,88.0,36.0,-100.00,South,174,9.0,19.0,15,-99.99,,,-99.99,460.239990,,2013-08-09 22:11:00,
2013-08-09 16:22:00,89.0,35.0,-100.00,South,169,4.0,13.0,15,-99.99,,,-99.99,170.850006,,2013-08-09 22:22:00,
2013-08-09 16:32:00,89.0,35.0,-100.00,South,169,4.0,13.0,15,-99.99,,,-99.99,170.850006,,2013-08-09 22:32:00,
2013-08-09 16:42:00,88.0,34.0,-100.00,South,171,5.0,11.0,14,-99.99,,,-99.99,146.440002,,2013-08-09 22:42:00,
2013-08-09 16:52:00,88.0,36.0,-100.00,SSE,147,8.0,16.0,16,-99.99,,,-99.99,281.029999,,2013-08-09 22:52:00,
2013-08-09 17:01:00,88.0,36.0,-100.00,SSE,147,8.0,16.0,16,-99.99,,,-99.99,281.029999,,2013-08-09 23:01:00,
2013-08-09 17:11:00,88.0,36.0,-100.00,SSE,158,8.0,12.0,15,-99.99,,,-99.99,119.940002,,2013-08-09 23:11:00,
2013-08-09 17:21:00,88.0,36.0,-100.00,South,171,5.0,11.0,15,-99.99,,,-99.99,213.380005,,2013-08-09 23:21:00,
2013-08-09 17:32:00,88.0,36.0,-100.00,South,171,5.0,11.0,15,-99.99,,,-99.99,213.380005,,2013-08-09 23:32:00,
2013-08-09 17:43:00,90.0,35.0,-100.00,SSE,156,3.0,9.0,14,-99.99,,,-99.99,447.690002,,2013-08-09 23:43:00,
2013-08-09 17:52:00,88.0,35.0,-100.00,South,186,7.0,17.0,15,-99.99,,,-99.99,97.629997,,2013-08-09 23:52:00,
2013-08-09 18:01:00,88.0,35.0,-100.00,South,186,7.0,17.0,15,-99.99,,,-99.99,97.629997,,2013-08-10 00:01:00,
2013-08-09 18:11:00,88.0,34.0,-100.00,South,191,3.0,7.0,15,-99.99,,,-99.99,64.150002,,2013-08-10 00:11:00,
2013-08-09 18:22:00,88.0,35.0,-100.00,SSW,199,2.0,4.0,15,-99.99,,,-99.99,257.320007,,2013-08-10 00:22:00,
2013-08-09 18:33:00,88.0,35.0,-100.00,SSW,199,2.0,4.0,15,-99.99,,,-99.99,257.320007,,2013-08-10 00:33:00,
2013-08-09 18:43:00,89.0,35.0,-100.00,SSE,164,4.0,9.0,14,-99.99,,,-99.99,220.360001,,2013-08-10 00:43:00,
2013-08-09 18:52:00,88.0,36.0,-100.00,SSE,168,5.0,8.0,15,-99.99,,,-99.99,195.250000,,2013-08-10 00:52:00,
2013-08-09 19:01:00,88.0,36.0,-100.00,SSE,168,5.0,8.0,15,-99.99,,,-99.99,195.250000,,2013-08-10 01:01:00,
2013-08-09 19:11:00,88.0,36.0,-100.00,SE,144,5.0,7.0,15,-99.99,,,-99.99,232.210007,,2013-08-10 01:11:00,
2013-08-09 19:22:00,88.0,36.0,-100.00,SE,141,6.0,8.0,15,-99.99,,,-99.99,183.399994,,2013-08-10 01:22:00,
2013-08-09 19:32:00,88.0,36.0,-100.00,SE,141,6.0,8.0,15,-99.99,,,-99.99,183.399994,,2013-08-10 01:32:00,
2013-08-09 19:42:00,88.0,36.0,-100.00,South,170,5.0,8.0,15,-99.99,,,-99.99,127.610001,,2013-08-10 01:42:00,
2013-08-09 19:52:00,87.0,37.0,-100.00,SSE,164,4.0,8.0,17,-99.99,,,-99.99,57.880001,,2013-08-10 01:52:00,
2013-08-09 20:03:00,87.0,37.0,-100.00,SSE,164,4.0,8.0,17,-99.99,,,-99.99,57.880001,,2013-08-10 02:03:00,
2013-08-09 20:11:00,86.0,39.0,-100.00,SSW,193,2.0,5.0,19,-99.99,,,-99.99,18.830000,,2013-08-10 02:11:00,
2013-08-09 20:21:00,85.0,40.0,-100.00,South,183,3.0,7.0,20,-99.99,,,-99.99,4.880000,,2013-08-10 02:21:00,
2013-08-09 20:32:00,85.0,40.0,-100.00,South,183,3.0,7.0,20,-99.99,,,-99.99,4.880000,,2013-08-10 02:32:00,
2013-08-09 20:42:00,84.0,41.0,-100.00,South,182,3.0,6.0,21,-99.99,,,-99.99,0.700000,,2013-08-10 02:42:00,
2013-08-09 20:52:00,84.0,41.0,-100.00,SSW,206,3.0,5.0,21,-99.99,,,-99.99,0.000000,,2013-08-10 02:52:00,
2013-08-09 21:01:00,84.0,41.0,-100.00,SSW,206,3.0,5.0,21,-99.99,,,-99.99,0.000000,,2013-08-10 03:01:00,
2013-08-09 21:11:00,84.0,41.0,-100.00,South,183,2.0,5.0,21,-99.99,,,-99.99,0.000000,,2013-08-10 03:11:00,
2013-08-09 21:32:00,84.0,41.0,-100.00,SSE,168,3.0,8.0,21,-99.99,,,-99.99,0.000000,,2013-08-10 03:32:00,
2013-08-09 21:42:00,83.0,43.0,-100.00,South,170,8.0,16.0,24,-99.99,,,-99.99,0.000000,,2013-08-10 03:42:00,
2013-08-09 21:52:00,82.0,46.0,-100.00,SSW,196,4.0,10.0,27,-99.99,,,-99.99,0.000000,,2013-08-10 03:52:00,
2013-08-09 22:01:00,82.0,46.0,-100.00,SSW,196,4.0,10.0,27,-99.99,,,-99.99,0.000000,,2013-08-10 04:01:00,
2013-08-09 22:12:00,82.0,46.0,-100.00,South,188,5.0,9.0,28,-99.99,,,-99.99,0.000000,,2013-08-10 04:12:00,
2013-08-09 22:22:00,82.0,46.0,-100.00,SSE,158,7.0,14.0,28,-99.99,,,-99.99,0.000000,,2013-08-10 04:22:00,
2013-08-09 22:32:00,82.0,46.0,-100.00,SSE,158,7.0,14.0,28,-99.99,,,-99.99,0.000000,,2013-08-10 04:32:00,
2013-08-09 22:43:00,82.0,46.0,-100.00,SSE,161,7.0,16.0,28,-99.99,,,-99.99,0.000000,,2013-08-10 04:43:00,
2013-08-09 22:53:00,81.0,46.0,-100.00,SE,145,5.0,10.0,28,-99.99,,,-99.99,0.000000,,2013-08-10 04:53:00,
2013-08-09 23:02:00,81.0,46.0,-100.00,SE,145,5.0,10.0,28,-99.99,,,-99.99,0.000000,,2013-08-10 05:02:00,
2013-08-09 23:11:00,80.0,46.0,-100.00,ESE,116,6.0,10.0,29,-99.99,,,-99.99,0.000000,,2013-08-10 05:11:00,
2013-08-09 23:22:00,80.0,46.0,-100.00,SE,126,6.0,9.0,30,-99.99,,,-99.99,0.000000,,2013-08-10 05:22:00,
2013-08-09 23:32:00,80.0,46.0,-100.00,SE,126,6.0,9.0,30,-99.99,,,-99.99,0.000000,,2013-08-10 05:32:00,
2013-08-09 23:42:00,79.0,45.0,-100.00,SE,141,4.0,8.0,30,-99.99,,,-99.99,0.000000,,2013-08-10 05:42:00,